Amateur Radio Satellites - All Passes

Search period start: 18 May 2013 12:53
Search period end: 19 May 2013 12:53
Location: Meriden, 44.0740°N, 93.3870°W

Satellite Date Start Highest point End Downlink Frequencies (MHz)
Time Altitude Azimuth
OPAL 18 May 12:57:47 13:01:57 26° 298° (WNW) 13:06:03 ?
MaSat-1 18 May 13:15:38 13:19:02 41° 250° (WSW) 13:21:47 437.345 MHz
Uribyol 2 18 May 13:26:11 13:30:40 31° 65° (ENE) 13:35:11 436.500 FM
Oscar 19 18 May 13:38:41 13:43:35 44° 69° (ENE) 13:48:31 437.125 CW, 437.150 USB
UOSAT-12 18 May 13:58:13 14:02:40 57° 309° (NW) 14:07:11 437.025 FM, 437.400 FM
Uosat F 18 May 14:11:44 14:13:53 13° 57° (ENE) 14:16:01 435.120 FM
AO-27 18 May 14:14:37 14:19:47 80° 74° (ENE) 14:24:59 436.795 MHz FM
Gurwin Techsat 1B 18 May 14:16:04 14:17:59 12° 56° (NE) 14:19:53 435.225 FM
Oscar 16 18 May 14:16:49 14:22:00 75° 257° (WSW) 14:27:14 437.025 USB, Beacon 2401.1428
AO-Echo 18 May 14:20:39 14:24:53 30° 67° (ENE) 14:29:03 ?
ITAMSAT 1 18 May 14:22:29 14:27:39 89° 255° (WSW) 14:32:53 435.822 SSB
AO-7 18 May 14:37:16 14:40:46 13° 40° (NE) 14:44:16 29.400 - 29.500 MHz
Uribyol 2 18 May 15:05:20 15:10:04 36° 263° (W) 15:14:51 436.500 FM
Saudisat 1A 18 May 15:07:18 15:11:20 29° 44° (NE) 15:15:17 436.775 MHz
Oscar 19 18 May 15:18:53 15:23:07 25° 266° (W) 15:27:23 437.125 CW, 437.150 USB
TMSAT-1 18 May 15:33:25 15:38:13 37° 67° (ENE) 15:43:03 436.925 FM
UOSAT-12 18 May 15:41:52 15:43:51 13° 330° (NNW) 15:45:50 437.025 FM, 437.400 FM
Uosat F 18 May 15:46:56 15:51:56 88° 75° (ENE) 15:56:58 435.120 FM
Gurwin Techsat 1B 18 May 15:51:47 15:57:04 77° 74° (ENE) 16:02:24 435.225 FM
AO-27 18 May 15:57:32 15:59:56 13° 271° (W) 16:02:21 436.795 MHz FM
AO-Echo 18 May 15:59:14 16:03:38 32° 263° (W) 16:07:58 ?
ITAMSAT 1 18 May 16:06:22 16:07:54 11° 273° (W) 16:09:26 435.822 SSB
PCSat 18 May 16:07:46 16:11:04 16° 36° (NE) 16:14:21 145.825 MHz
AO-7 18 May 16:23:45 16:31:38 51° 62° (ENE) 16:39:34 29.400 - 29.500 MHz
Sapphire 18 May 16:39:59 16:44:19 23° 43° (NE) 16:48:37 437.095 MHz 1200 baud AX-25 AFSK
RS-15 18 May 16:43:41 16:54:17 38° 107° (ESE) 17:04:29 29.354 - 29.394 USB, Beacon 29.352 USB
Saudisat 1A 18 May 16:46:53 16:51:08 39° 243° (WSW) 16:55:17 436.775 MHz
TMSAT-1 18 May 17:13:33 17:18:11 31° 265° (W) 17:22:52 436.925 FM
SO-50 18 May 17:18:50 17:21:36 16° 34° (NNE) 17:24:21 436.795 FM
Uosat F 18 May 17:30:01 17:31:26 11° 272° (W) 17:32:51 435.120 FM
Gurwin Techsat 1B 18 May 17:34:51 17:37:39 14° 271° (W) 17:40:28 435.225 FM
PCSat 18 May 17:50:03 17:55:30 72° 57° (ENE) 18:00:54 145.825 MHz
JAS-1B 18 May 18:14:19 18:20:35 22° 56° (NE) 18:26:16 435.800 - 435.900 CW/SSB
AO-7 18 May 18:16:59 18:24:35 40° 262° (W) 18:32:17 29.400 - 29.500 MHz
Sapphire 18 May 18:22:51 18:28:15 68° 243° (WSW) 18:33:38 437.095 MHz 1200 baud AX-25 AFSK
STRAND 1 18 May 18:25:02 18:27:48 15° 90° (E) 18:30:34 ?
Hamsat 18 May 18:40:37 18:44:10 27° 68° (ENE) 18:47:45 145.90 MHz
RS-15 18 May 18:54:02 19:06:01 70° 309° (NW) 19:17:31 29.354 - 29.394 USB, Beacon 29.352 USB
SO-50 18 May 18:58:24 19:03:00 80° 55° (NE) 19:07:29 436.795 FM
SO-67 18 May 19:02:04 19:03:50 13° 65° (ENE) 19:05:37 435.3500 MHz FM
PCSat 18 May 19:34:50 19:38:19 18° 255° (WSW) 19:41:47 145.825 MHz
HO-68 18 May 19:35:55 19:39:13 14° 47° (NE) 19:42:31 435.675 MHz FM
JAS-1B 18 May 20:00:45 20:10:14 83° 73° (ENE) 20:18:24 435.800 - 435.900 CW/SSB
STRAND 1 18 May 20:02:25 20:07:33 73° 287° (WNW) 20:12:40 ?
Hamsat 18 May 20:16:35 20:20:11 28° 265° (W) 20:23:51 145.90 MHz
SO-67 18 May 20:33:31 20:36:56 43° 261° (W) 20:40:23 435.3500 MHz FM
AO-40 18 May 20:41:04 03:43:22 44° 178° (S) 09:41:52 Beacon 2401.320
SO-50 18 May 20:41:09 20:42:56 12° 252° (WSW) 20:44:42 436.795 FM
JAS-2 18 May 20:41:10 20:47:20 27° 58° (ENE) 20:53:34 435.800 - 435.900 CW/SSB, 435.910 FM
UOSAT-12 18 May 20:46:47 20:50:46 28° 43° (NE) 20:54:45 437.025 FM, 437.400 FM
OPAL 18 May 20:59:06 21:01:44 14° 55° (NE) 21:04:22 ?
RS-15 18 May 21:10:54 21:20:56 31° 339° (NNW) 21:30:37 29.354 - 29.394 USB, Beacon 29.352 USB
HO-68 18 May 21:18:32 21:25:32 62° 68° (ENE) 21:32:33 435.675 MHz FM
STRAND 1 18 May 21:44:33 21:45:52 11° 305° (NW) 21:47:10 ?
JAS-1B 18 May 21:54:06 22:01:18 25° 269° (W) 22:07:53 435.800 - 435.900 CW/SSB
Oscar 11 18 May 22:02:12 22:06:28 68° 74° (ENE) 22:10:47 145.825 FM, Beacon 2401.500 USB
JAS-2 18 May 22:23:56 22:31:33 77° 257° (WSW) 22:39:29 435.800 - 435.900 CW/SSB, 435.910 FM
UOSAT-12 18 May 22:26:44 22:31:06 43° 242° (WSW) 22:35:26 437.025 FM, 437.400 FM
OPAL 18 May 22:34:41 22:39:54 89° 73° (ENE) 22:45:07 ?
HO-68 18 May 23:07:49 23:13:40 27° 266° (W) 23:19:34 435.675 MHz FM
RS-15 18 May 23:28:40 23:38:03 28° 14° (NNE) 23:47:08 29.354 - 29.394 USB, Beacon 29.352 USB
Oscar 11 18 May 23:41:36 23:43:10 12° 271° (W) 23:44:45 145.825 FM, Beacon 2401.500 USB
KITSAT 1 18 May 23:50:38 23:58:08 45° 111° (ESE) 00:05:42 435.175 FM
JAS-2 19 May 00:13:26 00:17:45 16° 276° (W) 00:22:10 435.800 - 435.900 CW/SSB, 435.910 FM
OPAL 19 May 00:17:31 00:19:27 12° 270° (W) 00:21:24 ?
RS-15 19 May 01:42:26 01:53:31 58° 45° (NE) 02:04:12 29.354 - 29.394 USB, Beacon 29.352 USB
KITSAT 1 19 May 01:45:44 01:53:30 49° 313° (NW) 02:01:21 435.175 FM
Oscar 19 19 May 01:50:33 01:53:05 14° 88° (E) 01:55:37 437.125 CW, 437.150 USB
MaSat-1 19 May 02:06:36 02:12:07 24° 105° (ESE) 02:17:01 437.345 MHz
AO-27 19 May 02:26:47 02:31:07 26° 94° (E) 02:35:26 436.795 MHz FM
Oscar 16 19 May 02:27:26 02:32:11 35° 97° (E) 02:36:54 437.025 USB, Beacon 2401.1428
ITAMSAT 1 19 May 02:34:22 02:38:55 29° 95° (E) 02:43:26 435.822 SSB
Oscar 10/S400 19 May 03:13:00 05:17:30 15° 76° (ENE) 06:41:20 145.825 - 145.975 CW/USB, Beacon 145.810 USB
Uribyol 2 19 May 03:16:01 03:21:16 73° 103° (ESE) 03:26:30 436.500 FM
Oscar 19 19 May 03:27:51 03:33:04 78° 286° (WNW) 03:38:12 437.125 CW, 437.150 USB
KITSAT 1 19 May 03:45:44 03:51:10 19° 339° (NNW) 03:56:37 435.175 FM
MaSat-1 19 May 03:46:56 03:54:05 70° 299° (WNW) 03:59:58 437.345 MHz
TMSAT-1 19 May 03:49:34 03:51:47 13° 88° (E) 03:53:59 436.925 FM
Uosat F 19 May 03:53:53 03:57:58 24° 94° (E) 04:02:01 435.120 FM
RS-15 19 May 03:55:21 04:05:36 46° 250° (WSW) 04:15:40 29.354 - 29.394 USB, Beacon 29.352 USB
ISS 19 May 03:56:50 03:58:51 15° 133° (SE) 04:00:53 145.800 FM
AO-Echo 19 May 04:04:13 04:08:56 70° 102° (ESE) 04:13:42 ?
AO-27 19 May 04:05:53 04:10:48 43° 291° (WNW) 04:15:42 436.795 MHz FM
Oscar 16 19 May 04:06:56 04:11:29 31° 294° (WNW) 04:15:59 437.025 USB, Beacon 2401.1428
Gurwin Techsat 1B 19 May 04:07:03 04:11:35 28° 94° (E) 04:16:04 435.225 FM
ITAMSAT 1 19 May 04:13:42 04:18:29 38° 293° (WNW) 04:23:16 435.822 SSB
AO-7 19 May 04:26:30 04:29:45 13° 85° (E) 04:32:58 29.400 - 29.500 MHz
Uribyol 2 19 May 04:56:54 05:00:11 17° 301° (WNW) 05:03:27 436.500 FM
Oscar 19 19 May 05:09:46 05:11:33 12° 304° (NW) 05:13:18 437.125 CW, 437.150 USB
TMSAT-1 19 May 05:27:04 05:32:24 86° 285° (WNW) 05:37:43 436.925 FM
ISS 19 May 05:31:52 05:35:12 78° 330° (NNW) 05:38:33 145.800 FM
Uosat F 19 May 05:32:12 05:36:56 42° 291° (WNW) 05:41:39 435.120 FM
MaSat-1 19 May 05:33:07 05:37:03 16° 315° (NW) 05:40:34 437.345 MHz
STRAND 1 19 May 05:42:06 05:46:14 26° 64° (ENE) 05:50:23 ?
AO-Echo 19 May 05:44:36 05:47:12 15° 300° (WNW) 05:49:49 ?
KITSAT 1 19 May 05:45:51 05:50:25 16° 10° (N) 05:55:00 435.175 FM
Gurwin Techsat 1B 19 May 05:46:43 05:51:40 41° 292° (WNW) 05:56:37 435.225 FM
AO-7 19 May 06:15:43 06:24:04 67° 105° (ESE) 06:32:23 29.400 - 29.500 MHz
Saudisat 1A 19 May 06:55:15 06:59:28 39° 117° (ESE) 07:03:46 436.775 MHz
TMSAT-1 19 May 07:09:05 07:11:33 13° 303° (WNW) 07:14:01 436.925 FM
ISS 19 May 07:09:28 07:12:19 25° 349° (N) 07:15:10 145.800 FM
STRAND 1 19 May 07:20:23 07:25:13 43° 261° (W) 07:30:05 ?
Sapphire 19 May 07:26:49 07:28:43 12° 102° (ESE) 07:30:37 437.095 MHz 1200 baud AX-25 AFSK
KITSAT 1 19 May 07:41:40 07:48:52 33° 39° (NE) 07:56:01 435.175 FM
JAS-1B 19 May 07:47:57 07:51:37 16° 86° (E) 07:55:05 435.800 - 435.900 CW/SSB
SO-67 19 May 08:00:12 08:02:00 13° 91° (E) 08:03:47 435.3500 MHz FM
Hamsat 19 May 08:00:52 08:05:04 46° 99° (E) 08:09:16 145.90 MHz
AO-7 19 May 08:09:14 08:16:19 32° 305° (NW) 08:23:23 29.400 - 29.500 MHz
PCSat 19 May 08:33:22 08:38:32 48° 114° (ESE) 08:43:45 145.825 MHz
Saudisat 1A 19 May 08:35:12 08:39:16 30° 316° (NW) 08:43:22 436.775 MHz
ISS 19 May 08:46:58 08:49:47 24° 9° (N) 08:52:36 145.800 FM
Sapphire 19 May 09:05:51 09:11:16 84° 120° (ESE) 09:16:43 437.095 MHz 1200 baud AX-25 AFSK
SO-50 19 May 09:16:22 09:19:45 19° 111° (ESE) 09:23:06 436.795 FM
SO-67 19 May 09:32:17 09:35:40 40° 287° (WNW) 09:39:02 435.3500 MHz FM
JAS-2 19 May 09:35:08 09:39:15 16° 84° (E) 09:43:06 435.800 - 435.900 CW/SSB, 435.910 FM
JAS-1B 19 May 09:36:54 09:43:14 71° 288° (WNW) 09:48:55 435.800 - 435.900 CW/SSB
KITSAT 1 19 May 09:36:55 09:45:02 76° 241° (WSW) 09:53:07 435.175 FM
Hamsat 19 May 09:37:50 09:40:49 19° 295° (WNW) 09:43:49 145.90 MHz
Oscar 11 19 May 09:51:08 09:52:27 11° 89° (E) 09:53:45 145.825 FM, Beacon 2401.500 USB
PCSat 19 May 10:17:28 10:22:11 30° 314° (NW) 10:26:57 145.825 MHz
ISS 19 May 10:23:35 10:26:57 67° 29° (NNE) 10:30:18 145.800 FM
HO-68 19 May 10:32:01 10:39:02 55° 101° (ESE) 10:46:01 435.675 MHz FM
OPAL 19 May 10:44:19 10:47:58 20° 94° (E) 10:51:33 ?
Sapphire 19 May 10:51:28 10:55:24 20° 320° (NW) 10:59:21 437.095 MHz 1200 baud AX-25 AFSK
SO-50 19 May 10:55:15 10:59:59 59° 308° (NW) 11:04:40 436.795 FM
JAS-2 19 May 11:18:11 11:25:27 90° 285° (WNW) 11:31:49 435.800 - 435.900 CW/SSB, 435.910 FM
Oscar 11 19 May 11:24:49 11:29:10 72° 285° (WNW) 11:33:31 145.825 FM, Beacon 2401.500 USB
JAS-1B 19 May 11:30:13 11:32:30 12° 312° (NW) 11:34:43 435.800 - 435.900 CW/SSB
KITSAT 1 19 May 11:34:45 11:39:05 16° 261° (W) 11:43:25 435.175 FM
ISS 19 May 12:00:57 12:03:22 19° 226° (SW) 12:05:47 145.800 FM
HO-68 19 May 12:20:14 12:26:24 33° 300° (WNW) 12:32:35 435.675 MHz FM
OPAL 19 May 12:22:17 12:27:11 53° 292° (WNW) 12:32:00 ?
MaSat-1 19 May 12:31:52 12:35:31 74° 61° (ENE) 12:38:24 437.345 MHz
SO-50 19 May 12:39:18 12:41:36 13° 329° (NNW) 12:43:52 436.795 FM
UOSAT-12 19 May 12:39:31 12:43:42 39° 117° (ESE) 12:47:56 437.025 FM, 437.400 FM

Developed and maintained by Chris Peat, Heavens-Above GmbH. Please read the updated FAQ before sending e-mail. Imprint. DLR
